Theta_e
299 295 293 296 296 296 296 294 294 295 298 306 304 305 311 312 313 312 316 316 315 315 317 317 315 314 311 309 308 307 306 306 309 307 305 304 302 302 301 299 299 298 297 296
296 292 299 300 300 298 297 294 295 296 303 305 303 303 305 309 311 314 316 315 315 316 316 316 313 310 310 308 307 306 307 306 308 308 305 305 304 302 300 297 296 297 296 295
294 297 302 300 297 295 295 293 292 293 298 305 305 301 307 311 312 314 315 317 317 317 315 313 310 309 309 306 306 307 306 307 306 307 307 305 303 301 298 296 294 295 296 295
295 300 299 297 295 296 291 297 297 295 292 288 302 289 305 308 310 314 316 317 318 319 315 312 309 308 307 307 307 307 306 306 306 307 306 305 302 300 299 296 294 294 296 295
294 295 295 294 296 297 294 299 297 296 292 290 295 290 293 308 308 310 313 316 318 319 313 310 308 308 309 308 306 305 305 306 307 307 308 305 302 301 299 295 293 293 294 294
297 298 297 296 298 298 300 296 295 293 291 285 292 294 289 303 307 310 314 315 317 317 313 310 309 309 308 307 306 305 306 307 307 307 307 306 303 302 297 293 292 292 292 293
295 296 299 300 296 299 295 291 284 283 284 285 293 289 292 306 310 312 313 315 317 317 310 308 307 307 306 306 306 306 306 307 307 306 306 306 305 303 300 296 293 292 291 290
289 288 295 298 297 295 293 292 285 281 281 285 293 289 295 304 311 313 315 316 317 317 311 308 307 306 306 306 307 307 307 308 307 307 306 306 306 305 302 298 295 293 292 291
289 290 298 299 299 298 293 289 295 289 289 287 290 295 302 308 309 311 312 314 315 314 311 308 308 306 306 306 307 307 307 308 308 308 307 306 305 304 303 299 295 293 291 292
296 290 298 300 300 298 296 297 289 289 282 282 287 290 291 299 305 309 311 313 314 315 313 309 308 307 307 307 307 307 308 308 308 308 308 306 305 304 300 298 294 292 291 291
297 294 294 298 295 295 293 291 293 292 289 285 282 286 300 301 305 309 312 314 314 314 314 310 310 309 308 308 307 307 308 308 307 308 308 305 302 300 296 296 294 293 292 291
299 294 289 294 300 301 298 295 295 289 287 289 284 286 301 304 305 311 313 315 315 316 316 313 310 310 308 308 308 308 308 308 309 308 307 304 301 298 295 294 292 292 292 292
299 293 287 290 296 300 297 296 295 296 292 290 286 288 302 305 305 308 310 313 315 316 314 312 310 309 309 309 309 309 309 309 308 308 305 302 300 297 295 294 294 293 292 291
303 297 292 289 292 296 295 299 299 295 286 288 289 292 299 301 302 305 308 310 314 315 312 311 309 309 309 310 310 309 309 309 308 307 304 301 299 298 297 295 294 293 292 291
302 294 296 296 298 300 298 298 299 296 295 290 293 295 300 302 303 304 306 309 309 310 311 310 309 309 309 309 309 310 310 308 308 306 304 303 300 299 296 294 294 294 292 291
301 294 296 288 299 300 298 299 300 300 299 298 297 296 303 304 304 305 305 305 307 308 308 310 310 309 309 309 309 309 309 308 308 306 305 303 299 297 295 294 294 293 292 291
298 295 293 291 297 297 292 296 298 299 301 300 294 299 304 302 304 304 304 302 301 303 306 307 308 309 310 310 309 309 309 308 307 306 305 301 298 297 295 295 294 292 290 288
298 297 293 293 294 287 296 304 304 301 302 302 301 302 304 302 300 299 301 302 303 304 304 305 306 307 308 309 309 308 308 307 306 304 303 300 298 297 296 293 292 291 288 288
303 298 292 289 290 292 295 299 300 297 298 303 301 303 303 302 302 300 304 305 304 305 305 305 305 306 307 307 308 308 305 304 303 302 301 300 299 298 295 292 291 291 287 285
304 301 297 286 287 285 295 302 305 302 293 301 302 301 301 301 292 297 304 305 305 305 305 305 307 306 305 305 305 303 302 301 301 302 302 301 299 298 294 293 290 287 286 286
297 293 292 291 288 288 298 302 302 290 292 298 300 301 301 298 299 302 303 303 304 304 305 306 306 305 305 303 304 301 300 300 303 302 300 299 298 297 295 291 287 286 285 283
295 293 291 289 286 287 300 298 294 298 299 299 298 300 299 299 300 302 302 302 304 304 305 304 305 305 303 302 303 301 300 304 302 300 299 298 296 296 292 289 287 286 286 285
293 297 292 296 294 301 302 300 299 301 298 298 299 300 301 300 300 301 301 301 302 302 301 303 303 304 304 302 302 300 303 302 301 299 298 297 292 291 290 290 287 287 287 286
298 300 295 295 298 300 301 302 301 301 299 300 301 302 301 299 300 300 300 300 300 300 300 300 301 302 302 303 302 303 303 301 299 299 296 294 291 290 289 291 290 289 287 287
298 298 295 293 298 301 300 301 301 301 301 301 301 301 301 301 299 299 298 299 300 301 301 301 301 300 300 302 303 303 302 300 298 297 296 293 293 290 289 289 290 290 291 290
298 297 295 291 300 300 301 302 303 301 301 302 301 299 299 299 298 298 298 300 301 300 299 298 298 298 299 300 300 301 301 299 297 295 294 293 291 289 291 291 289 285 288 288
Wind_Speed
0 4 7 12 7 3 3 3 8 4 7 4 4 4 12 6 8 9 12 14 12 14 8 9 9 9 8 6 7 7 9 7 8 5 4 3 2 2 3 5 6 6 6 5
2 7 12 4 5 6 5 6 15 8 3 2 3 2 1 4 6 11 14 13 15 11 12 11 10 9 10 9 9 8 9 10 8 7 3 4 3 2 3 3 5 5 7 5
10 7 5 4 6 4 6 6 5 8 1 3 5 2 5 4 4 6 8 11 12 15 17 14 13 12 10 11 11 11 9 11 8 7 6 4 4 2 3 3 3 2 6 5
7 6 8 9 6 7 7 7 9 5 3 5 5 6 6 10 11 10 14 15 16 16 16 15 16 14 13 13 10 10 9 8 7 8 7 8 4 4 3 3 3 3 5 5
9 1 5 9 12 6 9 10 10 7 5 4 3 1 5 10 14 18 18 19 19 18 19 19 17 17 16 13 12 9 8 7 7 8 8 7 5 2 3 3 6 3 3 5
10 2 5 7 4 5 5 6 2 4 3 5 8 9 4 9 17 18 17 20 21 18 16 18 17 15 14 11 11 8 10 10 8 9 8 10 10 7 5 4 5 4 2 3
3 10 6 5 12 14 4 2 4 5 3 10 6 5 8 13 12 20 24 25 21 18 16 16 17 15 14 14 13 11 12 13 10 10 10 10 10 10 12 9 6 6 3 3
6 7 8 6 15 14 8 9 7 9 6 8 1 6 6 8 11 11 10 15 17 16 14 18 18 16 16 16 15 15 14 13 12 12 12 10 10 8 7 8 6 5 5 5
6 6 5 5 7 10 4 5 8 5 2 1 5 5 6 5 1 6 10 14 18 17 17 19 17 17 16 16 18 17 15 14 13 13 11 9 10 9 9 9 7 6 5 5
6 8 7 8 4 5 9 6 3 2 5 11 4 5 6 4 6 6 10 15 16 15 14 16 16 17 16 16 15 14 15 17 13 13 11 10 12 11 8 9 9 9 6 6
6 5 5 1 6 10 1 3 4 4 6 9 9 7 8 11 9 14 13 16 17 17 16 16 16 17 17 14 14 15 15 15 13 13 11 11 10 10 9 10 9 10 9 8
10 5 6 17 8 8 7 11 11 11 8 3 4 8 4 6 6 9 12 12 14 16 16 17 17 17 16 17 15 17 16 16 15 13 13 12 11 11 11 10 11 11 11 9
7 5 2 6 4 2 7 5 6 3 3 17 9 7 2 7 5 7 7 8 11 14 14 13 11 15 16 17 16 16 16 15 13 13 13 12 12 13 13 12 12 12 11 11
7 6 9 14 10 6 5 6 4 8 5 6 7 5 6 6 9 7 7 8 10 14 16 16 13 15 16 17 17 17 15 14 12 13 14 14 14 14 13 11 12 12 11 11
6 7 6 6 7 6 8 6 9 8 6 8 6 10 11 10 9 9 8 5 8 10 12 13 15 16 16 15 14 14 13 13 14 15 15 16 13 12 11 11 12 11 10 10
2 7 6 5 6 7 5 9 7 6 4 5 3 4 6 6 3 6 8 8 8 10 12 15 14 12 13 14 14 14 14 14 15 15 15 14 13 12 12 12 12 11 11 10
6 5 3 11 4 3 8 12 12 6 6 7 7 8 4 5 7 9 6 7 6 5 7 7 9 12 13 13 13 15 16 12 15 15 13 14 14 14 12 11 11 12 12 11
9 7 5 13 3 16 9 10 15 16 11 10 6 6 8 5 3 4 5 7 9 7 6 5 3 6 7 7 9 9 12 14 15 14 13 13 14 14 11 12 13 11 9 11
9 9 5 5 13 5 5 6 9 10 18 8 12 13 7 6 5 5 4 4 6 6 4 3 2 2 5 7 6 8 8 9 11 12 14 13 13 13 12 14 12 10 9 8
10 5 12 4 7 14 8 8 7 5 15 10 11 9 12 7 6 5 5 6 7 7 6 4 3 3 3 4 7 7 6 7 11 12 15 12 12 13 14 12 11 7 7 9
14 6 17 10 8 8 7 5 8 13 9 8 11 12 16 9 6 7 8 5 5 4 4 4 3 2 4 7 8 8 8 11 13 7 7 9 11 13 12 9 5 7 7 6
16 13 10 7 4 18 8 6 12 7 2 7 6 9 9 8 8 9 8 6 5 5 5 4 4 3 4 7 7 7 10 12 8 10 11 11 11 9 7 9 6 7 8 8
15 14 11 16 11 5 6 7 6 7 8 7 11 9 10 12 7 9 7 7 6 6 3 4 4 3 5 7 7 7 13 6 7 9 11 9 6 7 9 13 12 8 10 9
9 5 7 6 6 7 8 1 5 7 7 8 9 16 12 10 9 7 7 7 6 4 4 2 3 1 5 2 5 9 4 5 7 8 7 7 9 11 11 9 7 8 8 9
8 7 8 1 0 7 2 6 10 7 11 11 9 11 10 13 9 8 7 6 6 6 4 5 7 6 6 3 5 6 5 6 7 7 6 6 7 10 8 9 10 11 14 14
7 11 10 7 11 6 9 8 10 14 14 17 13 7 5 9 10 7 7 5 6 7 5 6 6 6 5 6 6 7 4 7 7 7 7 7 7 7 9 9 7 3 6 13
Wind_Direction
268 133 212 232 199 234 320 258 277 258 251 154 222 160 167 145 146 161 171 175 177 183 182 164 155 151 146 158 155 164 158 157 142 131 120 96 93 87 69 81 84 86 86 86
356 230 234 225 183 229 265 273 279 271 185 115 103 88 312 177 189 181 182 180 183 175 166 167 162 161 170 170 173 168 167 159 160 151 141 133 154 78 97 89 81 96 100 101
214 223 220 223 280 237 241 221 244 235 79 59 109 18 203 209 164 155 190 195 189 180 172 174 171 175 174 177 180 176 175 175 165 143 116 84 77 68 74 65 84 87 104 99
242 243 227 263 238 170 263 221 241 219 162 231 168 252 210 205 207 205 192 198 197 190 177 174 176 177 182 187 182 178 182 177 170 155 136 159 155 157 187 151 133 139 116 122
233 319 222 227 233 171 235 256 224 239 196 145 200 355 251 186 221 220 208 202 200 196 176 177 182 180 189 180 183 184 178 181 174 168 169 160 152 153 140 126 135 145 144 143
241 232 188 217 253 209 270 301 335 34 116 228 222 183 236 187 217 229 214 205 205 198 180 176 180 181 186 182 182 182 181 196 187 178 177 176 166 159 151 159 151 176 166 122
289 234 246 236 283 291 179 88 304 306 272 256 209 174 228 214 222 217 210 207 197 188 171 174 180 183 184 186 187 187 189 201 196 185 177 181 179 174 177 175 164 162 154 185
198 317 186 200 207 232 226 182 174 239 229 262 272 234 244 215 232 236 212 194 190 192 176 180 183 186 188 189 190 190 192 200 194 188 189 188 176 185 185 177 164 175 182 175
185 255 228 193 183 163 234 174 213 239 268 328 233 293 323 140 202 145 154 175 190 183 181 184 182 187 191 192 193 193 188 200 196 194 189 186 184 179 184 168 164 175 158 165
223 276 198 241 125 234 184 187 252 343 209 253 248 227 224 229 230 172 165 181 191 192 180 185 187 189 193 195 193 196 196 197 195 195 188 182 182 183 170 157 168 170 158 167
165 200 236 91 193 224 310 236 237 257 161 246 258 253 212 211 198 195 196 188 187 194 186 186 191 194 193 190 190 196 199 198 195 190 180 175 175 173 164 169 169 171 168 172
206 184 228 238 229 203 185 222 212 221 248 248 192 250 243 203 250 193 201 200 187 190 192 191 190 187 189 192 193 197 199 200 197 187 181 181 174 169 168 171 171 166 171 179
180 237 259 317 333 227 230 202 216 166 128 222 227 262 255 142 202 240 196 200 187 185 187 193 188 192 195 196 197 200 201 202 191 179 177 178 181 176 179 180 176 172 169 174
141 200 185 232 212 175 202 214 210 205 194 219 217 193 250 169 164 212 215 198 196 186 187 190 192 201 201 200 199 201 202 195 183 178 181 184 186 185 185 177 174 174 173 171
153 235 200 229 221 188 205 188 199 196 214 188 223 199 205 207 192 196 214 213 176 189 192 196 203 204 203 201 201 200 199 186 178 183 187 192 186 182 174 172 179 178 176 173
242 245 184 267 211 208 232 211 205 216 218 262 198 222 210 212 187 192 179 188 193 197 203 207 212 209 205 201 201 196 193 188 180 186 193 189 181 177 177 179 181 176 177 180
181 187 183 245 200 190 258 210 202 210 199 167 196 215 170 191 201 223 212 185 169 186 209 205 206 206 205 204 193 197 196 176 186 190 187 186 180 184 183 180 181 188 186 174
213 193 184 245 166 229 246 185 197 212 200 198 181 202 200 195 119 107 116 148 136 133 114 118 164 205 202 189 191 181 176 182 186 190 189 180 183 185 181 181 192 191 177 183
212 213 219 189 228 285 245 204 168 180 236 202 183 190 155 142 87 32 130 150 138 135 148 173 218 199 195 192 170 158 161 172 182 190 192 187 184 187 184 192 193 188 178 182
192 221 213 147 231 222 199 207 189 109 253 207 185 176 150 149 135 220 183 148 156 153 153 145 79 68 129 139 134 139 158 167 196 198 199 184 183 189 193 192 188 176 177 189
192 195 215 213 229 270 240 184 128 176 233 173 175 173 164 179 193 143 147 156 135 122 128 119 129 159 162 154 143 157 161 198 205 177 175 181 187 194 194 178 150 162 167 150
183 181 198 179 225 246 187 96 190 190 135 145 148 159 149 122 115 128 147 152 167 180 167 178 175 196 160 159 160 172 198 218 172 171 183 191 191 187 164 158 152 157 166 181
203 188 171 188 203 210 166 181 196 169 149 169 151 138 133 126 133 151 161 162 180 179 185 181 195 215 195 188 181 183 233 169 174 181 200 197 153 160 163 169 173 182 185 180
229 158 156 127 215 173 172 137 169 170 140 137 137 140 140 134 137 139 139 141 131 120 101 112 111 319 310 225 209 244 13 157 167 205 204 179 178 186 186 189 194 179 176 217
210 141 145 148 157 93 167 190 164 135 123 111 126 143 136 140 151 145 144 137 120 107 88 78 78 64 31 9 250 251 215 176 200 208 209 200 190 192 177 188 191 194 210 207
191 168 179 202 184 147 179 172 149 140 144 144 140 117 124 135 146 136 133 128 118 101 101 88 85 76 37 26 9 337 263 193 195 211 209 207 193 186 205 206 196 347 243 202